,,Stat6,,Stat2,,Stat8,,Stat9,,Stat10,,Wind1,,Wind1,
time,status,PA1M_AVG,status,PR1M_SUM,status,RH1M_AVG,status,SR1M_AVG,status,TA1M_AVG,status,W1dAve1m,status,W1sAve1m,
2006-04-14, 00:00:00,VALID,917.368,VALID,0,VALID,100,VALID,-0.169808,VALID,19.7237,VALID,321,VALID,0.166481,
2006-04-14, 00:01:00,VALID,917.37,VALID,0,VALID,100,VALID,-0.118866,VALID,18.9232,VALID,321,VALID,0.150073,
2006-04-14, 00:02:00,VALID,917.355,VALID,0,VALID,100,VALID,0,VALID,19.6788,VALID,320,VALID,0.0898438,
2006-04-14, 00:03:00,VALID,917.361,VALID,0,VALID,100,VALID,-0.0339617,VALID,19.3587,VALID,320,VALID,0.162899,
2006-04-14, 00:04:00,VALID,917.346,VALID,0,VALID,100,VALID,-0.20377,VALID,19.5972,VALID,332,VALID,0.640997,
2006-04-14, 00:05:00,VALID,917.338,VALID,0,VALID,100,VALID,-0.186789,VALID,19.7904,VALID,12,VALID,0.818359,
2006-04-14, 00:06:00,VALID,917.345,VALID,0,VALID,100,VALID,-0.101885,VALID,19.4794,VALID,1,VALID,0.843056,
2006-04-14, 00:07:00,VALID,917.341,VALID,0,VALID,100,VALID,-0.186789,VALID,19.6387,VALID,5,VALID,0.869792,
2006-04-14, 00:08:00,VALID,917.351,VALID,0,VALID,100,VALID,-0.152827,VALID,19.2375,VALID,354,VALID,0.622456,
2006-04-14, 00:09:00,VALID,917.359,VALID,0,VALID,100,VALID,-0.118866,VALID,19.2278,VALID,337,VALID,0.178757,
2006-04-14, 00:10:00,VALID,917.378,VALID,0,VALID,100,VALID,-0.20377,VALID,19.4234,VALID,259,VALID,0.474144,
2006-04-14, 00:11:00,VALID,917.382,VALID,0,VALID,100,VALID,-0.186789,VALID,19.2867,VALID,269,VALID,0.208757,
2006-04-14, 00:12:00,VALID,917.384,VALID,0,VALID,100,VALID,-0.169808,VALID,19.7336,VALID,272,VALID,0.203497,
2006-04-14, 00:13:00,VALID,917.386,VALID,0,VALID,100,VALID,-0.20377,VALID,19.2794,VALID,296,VALID,0.294017,
2006-04-14, 00:14:00,VALID,917.387,VALID,0,VALID,100,VALID,-0.20377,VALID,19.29,VALID,342,VALID,0.546181,
2006-04-14, 00:15:00,VALID,917.398,VALID,0,VALID,100,VALID,-0.186789,VALID,21.0014,VALID,355,VALID,0.707564,
2006-04-14, 00:16:00,VALID,917.397,VALID,0,VALID,100,VALID,-0.186789,VALID,19.7875,VALID,10,VALID,0.848072,
2006-04-14, 00:17:00,VALID,917.413,VALID,0,VALID,100,VALID,-0.101885,VALID,20.5559,VALID,13,VALID,0.832209,
2006-04-14, 00:18:00,VALID,917.423,VALID,0,VALID,100,VALID,-0.135847,VALID,19.5251,VALID,12,VALID,0.768111,
2006-04-14, 00:19:00,VALID,917.434,VALID,0,VALID,100,VALID,-0.20377,VALID,18.664,VALID,10,VALID,0.736151,
2006-04-14, 00:20:00,VALID,917.452,VALID,0,VALID,100,VALID,-0.186789,VALID,19.6128,VALID,358,VALID,0.794457,
2006-04-14, 00:21:00,VALID,917.465,VALID,0,VALID,100,VALID,-0.186789,VALID,19.9139,VALID,358,VALID,0.864702,
2006-04-14, 00:22:00,VALID,917.479,VALID,0,VALID,100,VALID,-0.118866,VALID,19.0519,VALID,356,VALID,0.863948,
2006-04-14, 00:23:00,VALID,917.501,VALID,0,VALID,100,VALID,-0.20377,VALID,19.9652,VALID,348,VALID,1.08543,
2006-04-14, 00:24:00,VALID,917.527,VALID,0,VALID,100,VALID,-0.20377,VALID,19.5185,VALID,360,VALID,0.812119,
2006-04-14, 00:25:00,VALID,917.532,VALID,0,VALID,100,VALID,-0.20377,VALID,19.4696,VALID,338,VALID,1.19752,
2006-04-14, 00:26:00,VALID,917.543,VALID,0,VALID,100,VALID,-0.20377,VALID,19.5255,VALID,317,VALID,0.753405,
2006-04-14, 00:27:00,VALID,917.55,VALID,0,VALID,100,VALID,-0.20377,VALID,20.2317,VALID,317,VALID,0.923209,
2006-04-14, 00:28:00,VALID,917.562,VALID,0,VALID,100,VALID,-0.186789,VALID,19.1893,VALID,339,VALID,0.872142,
2006-04-14, 00:29:00,VALID,917.563,VALID,0,VALID,100,VALID,-0.186789,VALID,19.698,VALID,350,VALID,0.894985,
2006-04-14, 00:30:00,VALID,917.568,VALID,0,VALID,100,VALID,-0.118866,VALID,18.9854,VALID,6,VALID,1.62938,
2006-04-14, 00:31:00,VALID,917.581,VALID,0,VALID,100,VALID,-0.20377,VALID,19.5335,VALID,6,VALID,0.955078,
2006-04-14, 00:32:00,VALID,917.583,VALID,0,VALID,100,VALID,-0.867295,VALID,19.7791,VALID,341,VALID,1.5718,
2006-04-14, 00:33:00,VALID,917.61,VALID,0,VALID,100,VALID,-0.867295,VALID,18.61,VALID,12,VALID,1.89121,
2006-04-14, 00:34:00,VALID,917.629,VALID,0,VALID,100,VALID,-0.220751,VALID,19.2795,VALID,10,VALID,1.46753,
2006-04-14, 00:35:00,VALID,917.648,VALID,0,VALID,100,VALID,-0.20377,VALID,19.4149,VALID,22,VALID,1.20839,
2006-04-14, 00:36:00,VALID,917.668,VALID,0,VALID,100,VALID,-0.20377,VALID,19.4774,VALID,10,VALID,1.16543,
2006-04-14, 00:37:00,VALID,917.67,VALID,0,VALID,100,VALID,-0.237732,VALID,19.279,VALID,12,VALID,1.29967,
2006-04-14, 00:38:00,VALID,917.703,VALID,0,VALID,100,VALID,-0.220751,VALID,19.5303,VALID,13,VALID,1.3748,
2006-04-14, 00:39:00,VALID,917.729,VALID,0,VALID,100,VALID,-0.20377,VALID,19.3505,VALID,11,VALID,1.31808,
2006-04-14, 00:40:00,VALID,917.754,VALID,0,VALID,100,VALID,-0.220751,VALID,18.858,VALID,10,VALID,1.07106,
2006-04-14, 00:41:00,VALID,917.771,VALID,0,VALID,100,VALID,-0.237732,VALID,19.5677,VALID,16,VALID,1.35709,
2006-04-14, 00:42:00,VALID,917.793,VALID,0,VALID,100,VALID,-0.152827,VALID,20.2428,VALID,19,VALID,1.23379,
2006-04-14, 00:43:00,VALID,917.808,VALID,0,VALID,100,VALID,-0.135847,VALID,19.4747,VALID,19,VALID,0.901634,
2006-04-14, 00:44:00,VALID,917.841,VALID,0,VALID,100,VALID,-0.101885,VALID,19.7819,VALID,14,VALID,0.462028,
2006-04-14, 00:45:00,VALID,917.859,VALID,0,VALID,100,VALID,-0.118866,VALID,19.813,VALID,7,VALID,0.60423,
2006-04-14, 00:46:00,VALID,917.882,VALID,0,VALID,100,VALID,-0.152827,VALID,19.6096,VALID,360,VALID,0.471768,
2006-04-14, 00:47:00,VALID,917.915,VALID,0,VALID,100,VALID,-0.152827,VALID,19.1378,VALID,360,VALID,0.410714,
2006-04-14, 00:48:00,VALID,917.93,VALID,0,VALID,100,VALID,-0.20377,VALID,19.6917,VALID,358,VALID,0.596475,
2006-04-14, 00:49:00,VALID,917.942,VALID,0,VALID,100,VALID,-0.101885,VALID,19.7684,VALID,353,VALID,0.817535,
2006-04-14, 00:50:00,VALID,917.944,VALID,0,VALID,100,VALID,-0.118866,VALID,19.1888,VALID,351,VALID,0.837636,
2006-04-14, 00:51:00,VALID,917.951,VALID,0,VALID,100,VALID,-0.118866,VALID,19.2895,VALID,5,VALID,0.671342,
2006-04-14, 00:52:00,VALID,917.941,VALID,0,VALID,100,VALID,-0.101885,VALID,18.72,VALID,325,VALID,1.03852,
2006-04-14, 00:53:00,VALID,917.936,VALID,0,VALID,100,VALID,-0.135847,VALID,19.6474,VALID,317,VALID,0.817454,
2006-04-14, 00:54:00,VALID,917.937,VALID,0,VALID,100,VALID,-0.101885,VALID,19.8057,VALID,328,VALID,0.758662,
2006-04-14, 00:55:00,VALID,917.941,VALID,0,VALID,100,VALID,-0.101885,VALID,19.0817,VALID,325,VALID,0.805069,
2006-04-14, 00:56:00,VALID,917.937,VALID,0,VALID,100,VALID,-0.135847,VALID,19,VALID,290,VALID,0.731957,
2006-04-14, 00:57:00,VALID,917.937,VALID,0,VALID,100,VALID,-0.152827,VALID,19.8096,VALID,286,VALID,0.626635,
2006-04-14, 00:58:00,VALID,917.943,VALID,0,VALID,100,VALID,-0.220751,VALID,19.3343,VALID,288,VALID,0.549107,
2006-04-14, 00:59:00,VALID,917.957,VALID,0,VALID,100,VALID,-0.186789,VALID,19.0625,VALID,315,VALID,0.907031,
2006-04-14, 01:00:00,VALID,917.962,VALID,0,VALID,100,VALID,-0.118866,VALID,19.2148,VALID,342,VALID,1.3104,
2006-04-14, 01:01:00,VALID,917.977,VALID,0,VALID,100,VALID,-0.152827,VALID,19.0976,VALID,344,VALID,1.49325,
2006-04-14, 01:02:00,VALID,917.995,VALID,0,VALID,100,VALID,-0.353456,VALID,19.6832,VALID,339,VALID,1.35265,
2006-04-14, 01:03:00,VALID,918.025,VALID,0,VALID,100,VALID,-0.20377,VALID,19.0225,VALID,345,VALID,1.27497,
2006-04-14, 01:04:00,VALID,918.033,VALID,0,VALID,100,VALID,-0.135847,VALID,20.0681,VALID,334,VALID,1.08482,
2006-04-14, 01:05:00,VALID,918.063,VALID,0,VALID,100,VALID,-0.118866,VALID,19.3513,VALID,347,VALID,1.15625,
2006-04-14, 01:06:00,VALID,918.084,VALID,0,VALID,100,VALID,-0.135847,VALID,19.0973,VALID,356,VALID,0.892578,
2006-04-14, 01:07:00,VALID,918.099,VALID,0,VALID,100,VALID,-0.135847,VALID,19.3879,VALID,14,VALID,0.806686,
2006-04-14, 01:08:00,VALID,918.108,VALID,0,VALID,100,VALID,-0.118866,VALID,19.7179,VALID,14,VALID,0.991235,
2006-04-14, 01:09:00,VALID,918.116,VALID,0,VALID,100,VALID,-0.135847,VALID,19.1122,VALID,348,VALID,0.89897,
2006-04-14, 01:10:00,VALID,918.108,VALID,0,VALID,100,VALID,-0.135847,VALID,18.6563,VALID,3,VALID,0.870617,
2006-04-14, 01:11:00,VALID,918.12,VALID,0,VALID,100,VALID,-0.118866,VALID,20.2524,VALID,3,VALID,0.910511,
2006-04-14, 01:12:00,VALID,918.138,VALID,0,VALID,100,VALID,-0.237732,VALID,19.1556,VALID,3,VALID,0.738758,
2006-04-14, 01:13:00,VALID,918.157,VALID,0,VALID,100,VALID,-0.254712,VALID,20.5182,VALID,28,VALID,0.776105,
2006-04-14, 01:14:00,VALID,918.185,VALID,0,VALID,100,VALID,-0.135847,VALID,18.8778,VALID,9,VALID,0.650152,
2006-04-14, 01:15:00,VALID,918.198,VALID,0,VALID,100,VALID,-0.135847,VALID,19.3655,VALID,15,VALID,0.488186,
2006-04-14, 01:16:00,VALID,918.199,VALID,0,VALID,100,VALID,-0.135847,VALID,20.1095,VALID,20,VALID,1.05168,
2006-04-14, 01:17:00,VALID,918.206,VALID,0,VALID,100,VALID,-0.152827,VALID,19.0186,VALID,26,VALID,0.902902,
2006-04-14, 01:18:00,VALID,918.203,VALID,0,VALID,100,VALID,-0.135847,VALID,19.6485,VALID,15,VALID,0.823765,
2006-04-14, 01:19:00,VALID,918.19,VALID,0,VALID,100,VALID,-0.118866,VALID,19.0694,VALID,20,VALID,0.873547,
2006-04-14, 01:20:00,VALID,918.197,VALID,0,VALID,100,VALID,-0.118866,VALID,19.6249,VALID,18,VALID,0.705124,
2006-04-14, 01:21:00,VALID,918.209,VALID,0,VALID,100,VALID,-0.118866,VALID,20.0828,VALID,17,VALID,0.286222,
2006-04-14, 01:22:00,VALID,918.221,VALID,0,VALID,100,VALID,-0.237732,VALID,19.4494,VALID,17,VALID,0.00817587,
2006-04-14, 01:23:00,VALID,918.206,VALID,0,VALID,100,VALID,-0.20377,VALID,19.4236,VALID,17,VALID,0,
2006-04-14, 01:24:00,VALID,918.214,VALID,0,VALID,100,VALID,-0.118866,VALID,19.2499,VALID,17,VALID,0.0012429,
2006-04-14, 01:25:00,VALID,918.217,VALID,0,VALID,100,VALID,-0.118866,VALID,20.2411,VALID,17,VALID,0.0432546,
2006-04-14, 01:26:00,VALID,918.21,VALID,0,VALID,100,VALID,-0.118866,VALID,19.8289,VALID,17,VALID,0.254102,
2006-04-14, 01:27:00,VALID,918.198,VALID,0,VALID,100,VALID,-0.20377,VALID,19.2708,VALID,35,VALID,0.176599,
2006-04-14, 01:28:00,VALID,918.176,VALID,0,VALID,100,VALID,-0.20377,VALID,20.1937,VALID,37,VALID,0.130327,
2006-04-14, 01:29:00,VALID,918.153,VALID,0,VALID,100,VALID,-0.220751,VALID,18.8703,VALID,37,VALID,0.0597098,
2006-04-14, 01:30:00,VALID,918.155,VALID,0,VALID,100,VALID,-0.220751,VALID,19.779,VALID,37,VALID,0,
2006-04-14, 01:31:00,VALID,918.133,VALID,0,VALID,100,VALID,-0.20377,VALID,19.2205,VALID,37,VALID,0,
2006-04-14, 01:32:00,VALID,918.134,VALID,0,VALID,100,VALID,-0.20377,VALID,19.897,VALID,37,VALID,0.0093006,
2006-04-14, 01:33:00,VALID,918.135,VALID,0,VALID,100,VALID,-0.118866,VALID,19.078,VALID,37,VALID,0,
2006-04-14, 01:34:00,VALID,918.124,VALID,0,VALID,100,VALID,-0.152827,VALID,19.7255,VALID,37,VALID,0,
2006-04-14, 01:35:00,VALID,918.124,VALID,0,VALID,100,VALID,-0.20377,VALID,19.3972,VALID,37,VALID,0,
2006-04-14, 01:36:00,VALID,918.109,VALID,0,VALID,100,VALID,-0.118866,VALID,18.3814,VALID,37,VALID,0,
2006-04-14, 01:37:00,VALID,918.112,VALID,0,VALID,100,VALID,-0.20377,VALID,19.7545,VALID,37,VALID,0,
2006-04-14, 01:38:00,VALID,918.106,VALID,0,VALID,100,VALID,-0.20377,VALID,19.4187,VALID,37,VALID,0,
2006-04-14, 01:39:00,VALID,918.113,VALID,0,VALID,100,VALID,-0.101885,VALID,19.2246,VALID,37,VALID,0,
2006-04-14, 01:40:00,VALID,918.112,VALID,0,VALID,100,VALID,-0.135847,VALID,19.0125,VALID,37,VALID,0,
2006-04-14, 01:41:00,VALID,918.098,VALID,0,VALID,100,VALID,-0.20377,VALID,20.1454,VALID,37,VALID,0,
2006-04-14, 01:42:00,VALID,918.092,VALID,0,VALID,100,VALID,-0.186789,VALID,19.4365,VALID,37,VALID,0,
2006-04-14, 01:43:00,VALID,918.081,VALID,0,VALID,100,VALID,-0.152827,VALID,19.8861,VALID,37,VALID,0,
2006-04-14, 01:44:00,VALID,918.081,VALID,0,VALID,100,VALID,-0.20377,VALID,20.3086,VALID,37,VALID,0,
2006-04-14, 01:45:00,VALID,918.07,VALID,0,VALID,100,VALID,-0.101885,VALID,19.6231,VALID,37,VALID,0.0733613,
2006-04-14, 01:46:00,VALID,918.094,VALID,0,VALID,100,VALID,-0.135847,VALID,19.8072,VALID,37,VALID,0.361662,
2006-04-14, 01:47:00,VALID,918.114,VALID,0,VALID,100,VALID,-0.254712,VALID,18.4505,VALID,37,VALID,0.513626,
2006-04-14, 01:48:00,VALID,918.131,VALID,0,VALID,100,VALID,-0.237732,VALID,18.8663,VALID,45,VALID,0.566761,
2006-04-14, 01:49:00,VALID,918.17,VALID,0,VALID,100,VALID,-0.237732,VALID,19.7511,VALID,54,VALID,0.438988,
2006-04-14, 01:50:00,VALID,918.184,VALID,0,VALID,100,VALID,-0.220751,VALID,19.7666,VALID,84,VALID,0.799782,
2006-04-14, 01:51:00,VALID,918.198,VALID,0,VALID,100,VALID,-0.186789,VALID,19.4817,VALID,102,VALID,0.895712,
2006-04-14, 01:52:00,VALID,918.208,VALID,0,VALID,100,VALID,-0.135847,VALID,19.9117,VALID,114,VALID,1.16824,
2006-04-14, 01:53:00,VALID,918.199,VALID,0,VALID,100,VALID,-0.118866,VALID,19.6251,VALID,119,VALID,1.4572,
2006-04-14, 01:54:00,VALID,918.202,VALID,0,VALID,100,VALID,-0.118866,VALID,19.1005,VALID,115,VALID,1.42454,
2006-04-14, 01:55:00,VALID,918.206,VALID,0,VALID,100,VALID,-0.101885,VALID,19.4606,VALID,128,VALID,1.30717,
2006-04-14, 01:56:00,VALID,918.187,VALID,0,VALID,100,VALID,-0.118866,VALID,19.0567,VALID,138,VALID,1.29167,
2006-04-14, 01:57:00,VALID,918.146,VALID,0,VALID,100,VALID,-0.101885,VALID,20.3432,VALID,151,VALID,1.25215,
2006-04-14, 01:58:00,VALID,918.121,VALID,0,VALID,100,VALID,-0.118866,VALID,19.5476,VALID,146,VALID,1.07626,
2006-04-14, 01:59:00,VALID,918.094,VALID,0,VALID,100,VALID,-0.135847,VALID,19.7093,VALID,140,VALID,1.14993,
2006-04-14, 02:00:00,VALID,918.067,VALID,0,VALID,100,VALID,-0.135847,VALID,19.2458,VALID,135,VALID,1.17605,
2006-04-14, 02:01:00,VALID,918.068,VALID,0,VALID,100,VALID,-0.237732,VALID,19.8036,VALID,129,VALID,0.764535,
2006-04-14, 02:02:00,VALID,918.061,VALID,0,VALID,100,VALID,-0.20377,VALID,19.2044,VALID,124,VALID,0.992369,
2006-04-14, 02:03:00,VALID,918.088,VALID,0,VALID,100,VALID,-0.152827,VALID,20.3293,VALID,116,VALID,1.03089,
2006-04-14, 02:04:00,VALID,918.107,VALID,0,VALID,100,VALID,-0.186789,VALID,19.713,VALID,121,VALID,1.04766,
2006-04-14, 02:05:00,VALID,918.123,VALID,0,VALID,100,VALID,-0.118866,VALID,19.4929,VALID,125,VALID,1.23864,
2006-04-14, 02:06:00,VALID,918.149,VALID,0,VALID,100,VALID,-0.101885,VALID,19.5468,VALID,125,VALID,1.13262,
2006-04-14, 02:07:00,VALID,918.178,VALID,0,VALID,100,VALID,-0.135847,VALID,19.0743,VALID,121,VALID,1.15039,
2006-04-14, 02:08:00,VALID,918.207,VALID,0,VALID,100,VALID,-0.135847,VALID,18.1276,VALID,114,VALID,1.33213,
2006-04-14, 02:09:00,VALID,918.222,VALID,0,VALID,100,VALID,-0.20377,VALID,19.5024,VALID,112,VALID,1.45767,
2006-04-14, 02:10:00,VALID,918.248,VALID,0,VALID,100,VALID,-0.20377,VALID,19.9979,VALID,102,VALID,1.17133,
2006-04-14, 02:11:00,VALID,918.278,VALID,0,VALID,100,VALID,-0.186789,VALID,18.9732,VALID,97,VALID,0.929688,
2006-04-14, 02:12:00,VALID,918.29,VALID,0,VALID,100,VALID,-0.20377,VALID,18.5788,VALID,102,VALID,1.26935,
2006-04-14, 02:13:00,VALID,918.306,VALID,0,VALID,100,VALID,-0.20377,VALID,19.162,VALID,113,VALID,1.14375,
2006-04-14, 02:14:00,VALID,918.321,VALID,0,VALID,100,VALID,-0.20377,VALID,19.6379,VALID,121,VALID,1.24293,
2006-04-14, 02:15:00,VALID,918.316,VALID,0,VALID,100,VALID,-0.20377,VALID,19.1939,VALID,110,VALID,1.10156,
2006-04-14, 02:16:00,VALID,918.322,VALID,0,VALID,100,VALID,-0.186789,VALID,18.8014,VALID,122,VALID,1.10042,
2006-04-14, 02:17:00,VALID,918.32,VALID,0,VALID,100,VALID,-0.135847,VALID,19.5518,VALID,121,VALID,1.12282,
2006-04-14, 02:18:00,VALID,918.335,VALID,0,VALID,100,VALID,-0.237732,VALID,19.3938,VALID,129,VALID,0.616824,
2006-04-14, 02:19:00,VALID,918.335,VALID,0,VALID,100,VALID,-0.20377,VALID,19.5458,VALID,139,VALID,0.534702,
2006-04-14, 02:20:00,VALID,918.339,VALID,0,VALID,100,VALID,-0.20377,VALID,19.7853,VALID,116,VALID,0.686756,
2006-04-14, 02:21:00,VALID,918.346,VALID,0,VALID,100,VALID,-0.20377,VALID,19.7367,VALID,115,VALID,0.41673,
2006-04-14, 02:22:00,VALID,918.351,VALID,0,VALID,100,VALID,-0.220751,VALID,18.817,VALID,115,VALID,0.353924,
2006-04-14, 02:23:01,VALID,918.353,VALID,0,VALID,100,VALID,-0.20377,VALID,19.1087,VALID,124,VALID,0.497954,
2006-04-14, 02:24:01,VALID,918.359,VALID,0,VALID,100,VALID,-0.20377,VALID,19.9393,VALID,135,VALID,0.53776,
2006-04-14, 02:25:00,VALID,918.373,VALID,0,VALID,100,VALID,-0.20377,VALID,19.4592,VALID,133,VALID,0.662972,
2006-04-14, 02:26:00,VALID,918.372,VALID,0,VALID,100,VALID,-0.20377,VALID,19.9323,VALID,122,VALID,0.888317,
2006-04-14, 02:27:00,VALID,918.381,VALID,0,VALID,100,VALID,-0.20377,VALID,19.7617,VALID,103,VALID,0.861328,
2006-04-14, 02:28:00,VALID,918.366,VALID,0,VALID,100,VALID,-0.20377,VALID,19.0155,VALID,95,VALID,0.857329,
2006-04-14, 02:29:01,VALID,918.359,VALID,0,VALID,100,VALID,-0.20377,VALID,18.9483,VALID,91,VALID,0.782848,
2006-04-14, 02:30:00,VALID,918.349,VALID,0,VALID,100,VALID,-0.20377,VALID,18.7908,VALID,89,VALID,0.696243,
2006-04-14, 02:31:00,VALID,918.34,VALID,0,VALID,100,VALID,-0.20377,VALID,18.5719,VALID,88,VALID,0.567951,
2006-04-14, 02:32:01,VALID,918.349,VALID,0,VALID,100,VALID,-0.20377,VALID,19.3165,VALID,88,VALID,0.573847,
2006-04-14, 02:33:01,VALID,918.34,VALID,0,VALID,100,VALID,-0.20377,VALID,19.0628,VALID,88,VALID,0.551448,
2006-04-14, 02:34:01,VALID,918.363,VALID,0,VALID,100,VALID,-0.118866,VALID,20.0687,VALID,88,VALID,0.64668,
2006-04-14, 02:35:00,VALID,918.377,VALID,0,VALID,100,VALID,-0.118866,VALID,19.7117,VALID,88,VALID,0.883878,
2006-04-14, 02:36:00,VALID,918.4,VALID,0,VALID,100,VALID,-0.20377,VALID,18.7341,VALID,92,VALID,1.05527,
2006-04-14, 02:37:00,VALID,918.423,VALID,0,VALID,100,VALID,-0.186789,VALID,19.27,VALID,90,VALID,1.08292,
2006-04-14, 02:38:00,VALID,918.429,VALID,0,VALID,100,VALID,-0.118866,VALID,19.8019,VALID,91,VALID,1.08132,
2006-04-14, 02:39:00,VALID,918.435,VALID,0,VALID,100,VALID,-0.152827,VALID,19.0254,VALID,90,VALID,1.00762,
2006-04-14, 02:40:00,VALID,918.421,VALID,0,VALID,100,VALID,-0.237732,VALID,19.0066,VALID,88,VALID,0.931108,
2006-04-14, 02:41:01,VALID,918.41,VALID,0,VALID,100,VALID,-0.220751,VALID,19.1932,VALID,92,VALID,0.953488,
2006-04-14, 02:42:00,VALID,918.416,VALID,0,VALID,100,VALID,-0.118866,VALID,20.2323,VALID,100,VALID,1.00509,
2006-04-14, 02:43:00,VALID,918.43,VALID,0,VALID,100,VALID,-0.186789,VALID,20.4833,VALID,99,VALID,0.843387,
2006-04-14, 02:44:00,VALID,918.438,VALID,0,VALID,100,VALID,-0.118866,VALID,19.3321,VALID,98,VALID,1.0423,
2006-04-14, 02:45:01,VALID,918.451,VALID,0,VALID,100,VALID,-0.101885,VALID,19.2253,VALID,96,VALID,0.735647,
2006-04-14, 02:46:00,VALID,918.454,VALID,0,VALID,100,VALID,-0.152827,VALID,19.0249,VALID,95,VALID,0.87827,
2006-04-14, 02:47:00,VALID,918.466,VALID,0,VALID,100,VALID,-0.220751,VALID,20.1384,VALID,97,VALID,0.765803,
2006-04-14, 02:48:01,VALID,918.484,VALID,0,VALID,100,VALID,-0.20377,VALID,19.4645,VALID,88,VALID,0.742378,
2006-04-14, 02:49:01,VALID,918.474,VALID,0,VALID,100,VALID,-0.20377,VALID,19.746,VALID,77,VALID,0.930398,
2006-04-14, 02:50:01,VALID,918.472,VALID,0,VALID,100,VALID,-0.20377,VALID,19.6373,VALID,73,VALID,0.921684,
2006-04-14, 02:51:01,VALID,918.485,VALID,0,VALID,100,VALID,-0.186789,VALID,19.8718,VALID,66,VALID,1.04316,
2006-04-14, 02:52:00,VALID,918.486,VALID,0,VALID,100,VALID,-0.101885,VALID,19.0074,VALID,65,VALID,1.26672,
2006-04-14, 02:53:00,VALID,918.494,VALID,0,VALID,100,VALID,-0.118866,VALID,19.6624,VALID,65,VALID,1.246,
2006-04-14, 02:54:01,VALID,918.492,VALID,0,VALID,100,VALID,-0.169808,VALID,18.4202,VALID,66,VALID,1.02534,
2006-04-14, 02:55:00,VALID,918.482,VALID,0,VALID,100,VALID,-0.0849042,VALID,19.5569,VALID,73,VALID,0.744186,
2006-04-14, 02:56:00,VALID,918.486,VALID,0,VALID,100,VALID,-0.118866,VALID,19.7678,VALID,90,VALID,0.774771,
2006-04-14, 02:57:00,VALID,918.491,VALID,0,VALID,100,VALID,-0.118866,VALID,18.5742,VALID,105,VALID,0.736737,
2006-04-14, 02:58:00,VALID,918.474,VALID,0,VALID,100,VALID,-0.20377,VALID,19.2796,VALID,108,VALID,0.821221,
2006-04-14, 02:59:00,VALID,918.482,VALID,0,VALID,100,VALID,-0.135847,VALID,19.1013,VALID,118,VALID,0.878534,
2006-04-14, 03:00:01,VALID,918.472,VALID,0,VALID,100,VALID,-0.20377,VALID,18.7522,VALID,127,VALID,0.936955,
2006-04-14, 03:01:00,VALID,918.47,VALID,0,VALID,100,VALID,-0.237732,VALID,19.3432,VALID,129,VALID,0.880716,
2006-04-14, 03:02:00,VALID,918.473,VALID,0,VALID,100,VALID,-0.20377,VALID,19.2235,VALID,136,VALID,0.983073,
2006-04-14, 03:03:01,VALID,918.466,VALID,0,VALID,100,VALID,-0.118866,VALID,19.2267,VALID,133,VALID,1.27401,
2006-04-14, 03:04:00,VALID,918.485,VALID,0,VALID,100,VALID,-0.135847,VALID,19.809,VALID,125,VALID,1.20295,
2006-04-14, 03:05:00,VALID,918.499,VALID,0,VALID,100,VALID,-0.20377,VALID,20.151,VALID,126,VALID,1.1592,
2006-04-14, 03:06:00,VALID,918.491,VALID,0,VALID,100,VALID,-0.20377,VALID,19.746,VALID,124,VALID,1.60658,
2006-04-14, 03:07:00,VALID,918.491,VALID,0,VALID,100,VALID,-0.20377,VALID,19.1237,VALID,124,VALID,1.42057,
2006-04-14, 03:08:00,VALID,918.501,VALID,0,VALID,100,VALID,-0.20377,VALID,18.3732,VALID,135,VALID,1.16978,
2006-04-14, 03:09:00,VALID,918.498,VALID,0,VALID,100,VALID,-0.20377,VALID,18.1268,VALID,131,VALID,1.18657,
2006-04-14, 03:10:00,VALID,918.488,VALID,0,VALID,100,VALID,-0.20377,VALID,19.0907,VALID,125,VALID,1.07031,
2006-04-14, 03:11:01,VALID,918.498,VALID,0,VALID,100,VALID,-0.237732,VALID,19.3025,VALID,121,VALID,1.17442,
2006-04-14, 03:12:00,VALID,918.496,VALID,0,VALID,100,VALID,-0.271693,VALID,19.1551,VALID,123,VALID,1.26406,
2006-04-14, 03:13:00,VALID,918.496,VALID,0,VALID,100,VALID,-0.220751,VALID,18.3918,VALID,123,VALID,1.08918,
2006-04-14, 03:14:00,VALID,918.497,VALID,0,VALID,100,VALID,-0.271693,VALID,18.3671,VALID,125,VALID,1.09989,
2006-04-14, 03:15:00,VALID,918.498,VALID,0,VALID,100,VALID,-0.118866,VALID,19.2146,VALID,140,VALID,1.20762,
2006-04-14, 03:16:01,VALID,918.492,VALID,0,VALID,100,VALID,-0.152827,VALID,18.8288,VALID,150,VALID,0.859557,
2006-04-14, 03:17:00,VALID,918.488,VALID,0,VALID,100,VALID,-0.135847,VALID,19.5931,VALID,150,VALID,1.07013,
2006-04-14, 03:18:00,VALID,918.473,VALID,0,VALID,100,VALID,-0.135847,VALID,19.3714,VALID,148,VALID,1.01799,
2006-04-14, 03:19:01,VALID,918.464,VALID,0,VALID,100,VALID,-0.118866,VALID,18.9745,VALID,149,VALID,1.1774,
2006-04-14, 03:20:00,VALID,918.449,VALID,0,VALID,100,VALID,-0.20377,VALID,19.3622,VALID,134,VALID,0.918064,
2006-04-14, 03:21:00,VALID,918.428,VALID,0,VALID,100,VALID,-0.20377,VALID,19.6676,VALID,141,VALID,0.732195,
2006-04-14, 03:22:01,VALID,918.401,VALID,0,VALID,100,VALID,-0.20377,VALID,19.4407,VALID,157,VALID,0.779042,
2006-04-14, 03:23:00,VALID,918.372,VALID,0,VALID,100,VALID,-0.20377,VALID,20.4299,VALID,147,VALID,0.412464,
2006-04-14, 03:24:00,VALID,918.368,VALID,0,VALID,100,VALID,-0.20377,VALID,19.1939,VALID,154,VALID,0.598214,
2006-04-14, 03:25:00,VALID,918.351,VALID,0,VALID,100,VALID,-0.20377,VALID,18.9961,VALID,156,VALID,0.0152027,
2006-04-14, 03:26:01,VALID,918.362,VALID,0,VALID,100,VALID,-0.20377,VALID,19.2593,VALID,156,VALID,0.0699491,
2006-04-14, 03:27:00,VALID,918.367,VALID,0,VALID,100,VALID,-0.186789,VALID,19.6948,VALID,156,VALID,0.232337,
2006-04-14, 03:28:01,VALID,918.359,VALID,0,VALID,100,VALID,-0.118866,VALID,18.7168,VALID,156,VALID,0.0107887,
2006-04-14, 03:29:00,VALID,918.375,VALID,0,VALID,100,VALID,-0.20377,VALID,19.324,VALID,156,VALID,0,
2006-04-14, 03:30:00,VALID,918.383,VALID,0,VALID,100,VALID,-0.186789,VALID,19.4227,VALID,156,VALID,0,
2006-04-14, 03:31:01,VALID,918.397,VALID,0,VALID,100,VALID,-0.118866,VALID,19.2992,VALID,156,VALID,0.00568182,
2006-04-14, 03:32:00,VALID,918.412,VALID,0,VALID,100,VALID,-0.20377,VALID,19.4963,VALID,156,VALID,0.0984003,
2006-04-14, 03:33:00,VALID,918.416,VALID,0,VALID,100,VALID,-0.20377,VALID,19.1331,VALID,156,VALID,0,
2006-04-14, 03:34:00,VALID,918.41,VALID,0,VALID,100,VALID,-0.20377,VALID,19.3593,VALID,156,VALID,0.00109012,
2006-04-14, 03:35:01,VALID,918.403,VALID,0,VALID,100,VALID,-0.135847,VALID,19.1958,VALID,156,VALID,0,
2006-04-14, 03:36:00,VALID,918.394,VALID,0,VALID,100,VALID,-0.20377,VALID,19.0304,VALID,156,VALID,0,
2006-04-14, 03:37:01,VALID,918.377,VALID,0,VALID,100,VALID,-0.220751,VALID,19.7331,VALID,156,VALID,0,
2006-04-14, 03:38:01,VALID,918.372,VALID,0,VALID,100,VALID,-0.20377,VALID,19.0524,VALID,156,VALID,0,
2006-04-14, 03:39:00,VALID,918.361,VALID,0,VALID,100,VALID,-0.20377,VALID,19.4919,VALID,156,VALID,0,
2006-04-14, 03:40:01,VALID,918.35,VALID,0,VALID,100,VALID,-0.220751,VALID,20.056,VALID,156,VALID,0,
2006-04-14, 03:41:00,VALID,918.357,VALID,0,VALID,100,VALID,-0.20377,VALID,19.1833,VALID,156,VALID,0.0647079,